INTELSAT 30 (IS-30)

Last updated on Thu Oct 30 2025 00:02:49 GMT+0000 (Coordinated Universal Time)

1 40271U 14062A 25302.49350360 -.00000141 00000+0 00000+0 0 9994 2 40271 0.0161 292.5318 0001726 137.2935 50.8759 1.00268524 4477
UTC large
Height (km)
Speed (km/s)
/
Latitude / Longitude
Inclination (degrees)
Orbital Period (minutes)
Azimuth
Elevation
Range (km)
Doppler Factor

Next 0 passes for location: London (51.5072 / 0.1276)

Sorry there are no passes over London.